If you wish to contribute or participate in the discussions about articles you are invited to join SKYbrary as a registered user

 Actions

Avignon-Caumont Airport

From SKYbrary Wiki

LFMV
Airport
ICAO: LFMV – IATA: AVN
Summary
Name Avignon-Caumont Airport
Region Europe
Territory France FR.gif
Location , Provence-Alpes-Cote d'Azur
Serving Avignon
Elevation 37.795 m
124 ft
124 ft37.795 m
Type medium airport
Coordinates 43° 54' 26.28" N, 4° 54' 6.59" E
Runways
Designator Length Width Surface ROPS
17/35 1880 m6,167.979 ft
45 m147.638 ft
ASP yes/yes


METAR
Observation LFMV 220500Z AUTO 35014KT CAVOK 16/08 Q1014 BECMG 34015G25KT
Station CAUMONT
Date/Time 22 May 2019 05:00:00
Wind direction 350°
Wind speed 14 kts
Lowest cloud amount clouds and visibility OK
Temperature 16°C
Dew point 8°C
Humidity 59%
QNH 1014 hPa
Weather condition n/a